Weather History for KLNP - September, 2011

Change the Weather History Date:

Monday, September 19, 2011

  Actual Average (KTRI) Record (KTRI)
Temperature  
Mean Temperature 63 °F 66 °F  
Max Temperature 71 °F 78 °F 92 °F (1954)
Min Temperature 55 °F 54 °F 41 °F (1984)
Degree Days  
Heating Degree Days 2 2  
Month to date heating degree days 13  
Since 1 July heating degree days 14  
Cooling Degree Days 0 3  
Month to date cooling degree days 94  
Year to date cooling degree days 946  
Growing Degree Days 13 (Base 50)    
Moisture  
Dew Point 55 °F    
Average Humidity 80    
Maximum Humidity 94    
Minimum Humidity 60    
Precipitation  
Precipitation 0.00 in 0.09 in 1.12 in (1953)
Month to date precipitation 1.98  
Year to date precipitation 31.43  
Snow  
Snow 0.00 in 0.00 in - ()
Month to date snowfall 0.0  
Since 1 July snowfall 0.0  
Since 1 September snowfall 0.0  
Snow Depth -    
Sea Level Pressure  
Sea Level Pressure 30.19 in    
Wind  
Wind Speed 7 mph (South)    
Max Wind Speed 12 mph    
Max Gust Speed 16 mph    
Visibility 10 miles    
Events      
T = Trace of Precipitation, MM = Missing Value Source: NWS Daily Summary

Daily Weather History Graph

Daily Weather History Graph

Search for Another Location

Airport or City:

Trip Planner

Search our weather history database for the weather conditions in past years. The results will help you decide how hot, cold, wet, or windy it might be!

Date:

Astronomy

Sep. 19, 2011 Rise Set
Actual Time 7:15 AM EDT 7:32 PM EDT
Civil Twilight 6:49 AM EDT 7:57 PM EDT
Nautical Twilight 6:18 AM EDT 8:28 PM EDT
Astronomical Twilight 5:47 AM EDT 8:59 PM EDT
Moon 11:47 PM EDT (9/19) 1:54 PM EDT (9/19)
Length of Visible Light 13h 08m
Length of Day
12h 16m
Waning Gibbous, 59% of the Moon is Illuminated
Sep 19
Waning Gibbous
Sep 20
Last Quarter
Sep 27
New
Oct 3
First Quarter
Oct 11
Full

Hourly Weather History & Observations

Time (EDT) Temp. Dew Point Humidity Pressure Visibility Wind Dir Wind Speed Gust Speed Precip Events Conditions
12:15 AM 57.2 °F 51.8 °F 82% 30.26 in 10.0 mi SSE 5.8 mph - N/A   Scattered Clouds
12:35 AM 57.2 °F 51.8 °F 82% 30.26 in 10.0 mi SSE 8.1 mph - N/A   Clear
12:55 AM 55.4 °F 51.8 °F 88% 30.26 in 10.0 mi SSE 6.9 mph - N/A   Clear
1:15 AM 55.4 °F 51.8 °F 88% 30.24 in 10.0 mi SSE 9.2 mph - N/A   Clear
1:35 AM 55.4 °F 51.8 °F 88% 30.25 in 10.0 mi SSE 8.1 mph - N/A   Clear
1:55 AM 55.4 °F 51.8 °F 88% 30.24 in 10.0 mi South 4.6 mph - N/A   Clear
2:15 AM 55.4 °F 53.6 °F 94% 30.23 in 10.0 mi SSE 6.9 mph - N/A   Clear
2:35 AM 55.4 °F 53.6 °F 94% 30.23 in 10.0 mi South 6.9 mph - N/A   Clear
2:55 AM 55.4 °F 53.6 °F 94% 30.23 in 10.0 mi South 5.8 mph - N/A   Clear
3:15 AM 55.4 °F 53.6 °F 94% 30.22 in 10.0 mi South 6.9 mph - N/A   Clear
3:35 AM 55.4 °F 53.6 °F 94% 30.22 in 10.0 mi South 6.9 mph - N/A   Clear
3:55 AM 55.4 °F 53.6 °F 94% 30.22 in 10.0 mi SSE 5.8 mph - N/A   Clear
4:15 AM 55.4 °F 53.6 °F 94% 30.21 in 10.0 mi SSE 8.1 mph - N/A   Clear
4:35 AM 55.4 °F 53.6 °F 94% 30.21 in 10.0 mi SSE 9.2 mph - N/A   Clear
4:55 AM 55.4 °F 51.8 °F 88% 30.20 in 10.0 mi SSE 5.8 mph - N/A   Clear
5:15 AM 55.4 °F 51.8 °F 88% 30.21 in 10.0 mi South 8.1 mph - N/A   Clear
5:35 AM 55.4 °F 51.8 °F 88% 30.21 in 10.0 mi SSE 9.2 mph - N/A   Clear
5:55 AM 55.4 °F 51.8 °F 88% 30.20 in 10.0 mi SSE 5.8 mph - N/A   Clear
6:15 AM 55.4 °F 51.8 °F 88% 30.21 in 10.0 mi SSE 8.1 mph - N/A   Clear
6:55 AM 57.2 °F 51.8 °F 82% 30.21 in 10.0 mi South 4.6 mph - N/A   Clear
7:15 AM 57.2 °F 51.8 °F 82% 30.20 in 10.0 mi South 6.9 mph - N/A   Clear
7:35 AM 55.4 °F 51.8 °F 88% 30.21 in 10.0 mi South 5.8 mph - N/A   Clear
7:55 AM 55.4 °F 51.8 °F 88% 30.22 in 10.0 mi South 6.9 mph - N/A   Clear
8:15 AM 57.2 °F 51.8 °F 82% 30.22 in 10.0 mi SSE 5.8 mph - N/A   Scattered Clouds
8:55 AM 57.2 °F 51.8 °F 82% 30.21 in 10.0 mi South 10.4 mph - N/A   Overcast
9:15 AM 57.2 °F 51.8 °F 82% 30.21 in 10.0 mi South 10.4 mph - N/A   Overcast
9:35 AM 57.2 °F 51.8 °F 82% 30.21 in 10.0 mi South 8.1 mph - N/A   Overcast
9:55 AM 57.2 °F 51.8 °F 82% 30.21 in 10.0 mi South 5.8 mph - N/A   Overcast
10:15 AM 57.2 °F 51.8 °F 82% 30.21 in 10.0 mi SSE 9.2 mph - N/A   Overcast
10:35 AM 59.0 °F 51.8 °F 77% 30.22 in 10.0 mi South 10.4 mph - N/A   Mostly Cloudy
10:55 AM 60.8 °F 53.6 °F 77% 30.22 in 10.0 mi South 10.4 mph - N/A   Overcast
11:15 AM 60.8 °F 51.8 °F 72% 30.22 in 10.0 mi South 11.5 mph - N/A   Overcast
11:35 AM 64.4 °F 53.6 °F 68% 30.21 in 10.0 mi South 8.1 mph 16.1 mph N/A   Mostly Cloudy
11:55 AM 66.2 °F 55.4 °F 68% 30.21 in 10.0 mi South 10.4 mph - N/A   Mostly Cloudy
12:15 PM 66.2 °F 55.4 °F 68% 30.20 in 10.0 mi South 10.4 mph - N/A   Scattered Clouds
12:35 PM 69.8 °F 55.4 °F 60% 30.19 in 10.0 mi South 9.2 mph - N/A   Clear
12:55 PM 69.8 °F 55.4 °F 60% 30.19 in 10.0 mi South 10.4 mph - N/A   Scattered Clouds
1:15 PM 68.0 °F 55.4 °F 64% 30.19 in 10.0 mi South 8.1 mph - N/A   Clear
1:35 PM 68.0 °F 55.4 °F 64% 30.18 in 10.0 mi South 9.2 mph - N/A   Clear
1:55 PM 68.0 °F 55.4 °F 64% 30.17 in 10.0 mi South 8.1 mph - N/A   Clear
2:15 PM 69.8 °F 57.2 °F 64% 30.17 in 10.0 mi South 6.9 mph - N/A   Scattered Clouds
2:35 PM 71.6 °F 57.2 °F 60% 30.16 in 10.0 mi South 8.1 mph - N/A   Scattered Clouds
3:15 PM 71.6 °F 57.2 °F 60% 30.14 in 10.0 mi South 6.9 mph - N/A   Clear
3:35 PM 69.8 °F 57.2 °F 64% 30.14 in 10.0 mi SSW 6.9 mph - N/A   Scattered Clouds
3:55 PM 71.6 °F 57.2 °F 60% 30.13 in 10.0 mi South 5.8 mph - N/A   Scattered Clouds
4:15 PM 69.8 °F 57.2 °F 64% 30.13 in 10.0 mi South 3.5 mph - N/A   Mostly Cloudy
4:35 PM 69.8 °F 59.0 °F 68% 30.13 in 10.0 mi South 5.8 mph - N/A   Mostly Cloudy
4:55 PM 69.8 °F 59.0 °F 68% 30.12 in 10.0 mi SSW 3.5 mph - N/A   Scattered Clouds
5:15 PM 68.0 °F 59.0 °F 73% 30.12 in 10.0 mi SW 4.6 mph - N/A   Mostly Cloudy
5:55 PM 66.2 °F 60.8 °F 83% 30.12 in 10.0 mi Calm Calm - N/A   Mostly Cloudy
6:15 PM 66.2 °F 60.8 °F 83% 30.13 in 10.0 mi SSW 4.6 mph - N/A   Mostly Cloudy
6:35 PM 64.4 °F 59.0 °F 83% 30.13 in 10.0 mi SW 3.5 mph - N/A   Overcast
6:55 PM 64.4 °F 60.8 °F 88% 30.13 in 10.0 mi Calm Calm - N/A   Overcast
7:15 PM 64.4 °F 60.8 °F 88% 30.13 in 10.0 mi Calm Calm - N/A   Overcast
7:35 PM 64.4 °F 60.8 °F 88% 30.14 in 10.0 mi SSW 3.5 mph - N/A   Overcast
7:55 PM 62.6 °F 60.8 °F 94% 30.14 in 10.0 mi WSW 4.6 mph - N/A   Overcast
8:15 PM 62.6 °F 60.8 °F 94% 30.14 in 10.0 mi SW 4.6 mph - N/A   Overcast
8:35 PM 62.6 °F 60.8 °F 94% 30.15 in 10.0 mi WSW 4.6 mph - N/A   Overcast
8:55 PM 62.6 °F 60.8 °F 94% 30.16 in 10.0 mi SW 5.8 mph - N/A   Overcast
9:15 PM 62.6 °F 60.8 °F 94% 30.16 in 10.0 mi South 3.5 mph - N/A   Overcast
9:35 PM 62.6 °F 60.8 °F 94% 30.16 in 10.0 mi South 5.8 mph - N/A   Overcast
9:55 PM 62.6 °F 59.0 °F 88% 30.16 in 10.0 mi South 5.8 mph - N/A   Overcast
10:15 PM 60.8 °F 59.0 °F 94% 30.16 in 10.0 mi SW 5.8 mph - N/A   Overcast
10:35 PM 60.8 °F 59.0 °F 94% 30.16 in 10.0 mi SSW 4.6 mph - N/A   Overcast
10:55 PM 60.8 °F 59.0 °F 94% 30.16 in 10.0 mi South 3.5 mph - N/A   Overcast
11:15 PM 60.8 °F 59.0 °F 94% 30.15 in 10.0 mi South 5.8 mph - N/A   Overcast
11:35 PM 60.8 °F 60.8 °F 100% 30.15 in 10.0 mi South 4.6 mph - N/A   Overcast
11:55 PM 62.6 °F 60.8 °F 94% 30.16 in 10.0 mi South 3.5 mph - N/A   Overcast